| time (UTC) | temp F | wind direction | speed knots | gust knots | rain 1hr in | rain 24hr in | rain mn in | humidity % | barometer mb |
| 20260502130504 | 63 | 200 | 6.1 | 7.0 | 0.00 | 0.00 | 0.00 | 51 | 1014.9 |
| 20260502123505 | 63 | 250 | 7.0 | 7.0 | 0.00 | 0.00 | 0.00 | 51 | 1015.9 |
| 20260502122504 | 63 | 250 | 7.0 | 7.0 | 0.00 | 0.00 | 0.00 | 51 | 1015.9 |
| 20260502120504 | 63 | 250 | 7.0 | 7.0 | 0.00 | 0.00 | 0.00 | 51 | 1015.9 |
| 20260502114007 | 61 | 240 | 7.0 | 7.0 | 0.00 | 0.00 | 0.00 | 58 | 1015.9 |
| 20260502113504 | 61 | 240 | 7.0 | 7.0 | 0.00 | 0.00 | 0.00 | 58 | 1015.9 |
| 20260502113008 | 61 | 240 | 7.0 | 7.0 | 0.00 | 0.00 | 0.00 | 58 | 1015.9 |
| 20260502112007 | 61 | 240 | 7.0 | 7.0 | 0.00 | 0.00 | 0.00 | 58 | 1015.9 |
| 20260502110504 | 61 | 240 | 7.0 | 7.0 | 0.00 | 0.00 | 0.00 | 58 | 1015.9 |
| 20260502110004 | 61 | 240 | 7.0 | 7.0 | 0.00 | 0.00 | 0.00 | 58 | 1015.9 |
| 20260502105504 | 59 | 230 | 6.1 | 6.1 | 0.00 | 0.00 | 0.00 | 67 | 1016.9 |
| 20260502104504 | 59 | 230 | 6.1 | 6.1 | 0.00 | 0.00 | 0.00 | 67 | 1016.9 |
| 20260502104007 | 59 | 230 | 6.1 | 6.1 | 0.00 | 0.00 | 0.00 | 67 | 1016.9 |
| 20260502103505 | 59 | 230 | 6.1 | 6.1 | 0.00 | 0.00 | 0.00 | 67 | 1016.9 |
| 20260502102503 | 59 | 230 | 6.1 | 6.1 | 0.00 | 0.00 | 0.00 | 67 | 1016.9 |
| 20260502102007 | 59 | 230 | 6.1 | 6.1 | 0.00 | 0.00 | 0.00 | 67 | 1016.9 |
| 20260502101504 | 59 | 230 | 6.1 | 6.1 | 0.00 | 0.00 | 0.00 | 67 | 1016.9 |
| 20260502101008 | 59 | 230 | 6.1 | 6.1 | 0.00 | 0.00 | 0.00 | 67 | 1016.9 |
| 20260502090504 | 55 | 260 | 6.1 | 8.7 | 0.00 | 0.00 | 0.00 | 71 | 1016.9 |
| 20260502071007 | 52 | 260 | 7.0 | 7.0 | 0.00 | 0.00 | 0.00 | 87 | 1016.9 |
| 20260502070504 | 52 | 260 | 7.0 | 11.3 | 0.00 | 0.00 | 0.00 | 87 | 1016.9 |
| 20260502070004 | 52 | 260 | 7.0 | 11.3 | 0.00 | 0.00 | 0.00 | 87 | 1016.9 |
| 20260502065007 | 55 | 260 | 11.3 | 11.3 | 0.00 | 0.00 | 0.00 | 87 | 1017.9 |
| 20260502063007 | 55 | 260 | 11.3 | 11.3 | 0.00 | 0.00 | 0.00 | 87 | 1017.9 |
| 20260502062503 | 55 | 260 | 11.3 | 11.3 | 0.00 | 0.00 | 0.00 | 87 | 1017.9 |
| 20260502062008 | 55 | 260 | 11.3 | 11.3 | 0.00 | 0.00 | 0.00 | 87 | 1017.9 |
| 20260502061505 | 55 | 260 | 11.3 | 11.3 | 0.00 | 0.00 | 0.00 | 87 | 1017.9 |
| 20260502060006 | 55 | 260 | 11.3 | 11.3 | 0.00 | 0.00 | 0.00 | 87 | 1017.9 |
| 20260501204007 | 57 | 260 | 11.3 | 11.3 | 0.00 | 0.00 | 0.00 | 82 | 1017.9 |
| 20260501203007 | 57 | 260 | 11.3 | 11.3 | 0.00 | 0.00 | 0.00 | 82 | 1017.9 |
| 20260501202504 | 57 | 260 | 11.3 | 11.3 | 0.00 | 0.00 | 0.00 | 82 | 1017.9 |
| 20260501202008 | 57 | 260 | 11.3 | 11.3 | 0.00 | 0.00 | 0.00 | 82 | 1017.9 |
| 20260501200504 | 57 | 260 | 11.3 | 11.3 | 0.00 | 0.00 | 0.00 | 82 | 1017.9 |
| 20260501194504 | 61 | 270 | 11.3 | 11.3 | 0.00 | 0.00 | 0.00 | 72 | 1017.9 |
| 20260501193504 | 61 | 270 | 11.3 | 11.3 | 0.00 | 0.00 | 0.00 | 72 | 1017.9 |
| 20260501193007 | 61 | 270 | 11.3 | 11.3 | 0.00 | 0.00 | 0.00 | 72 | 1017.9 |
| 20260501191007 | 61 | 270 | 11.3 | 11.3 | 0.00 | 0.00 | 0.00 | 72 | 1017.9 |
| 20260501185504 | 63 | 260 | 18.2 | 18.2 | 0.00 | 0.00 | 0.00 | 63 | 1017.9 |
| 20260501184007 | 63 | 260 | 18.2 | 18.2 | 0.00 | 0.00 | 0.00 | 63 | 1017.9 |
| 20260501183505 | 63 | 260 | 18.2 | 18.2 | 0.00 | 0.00 | 0.00 | 63 | 1017.9 |
| 20260501183008 | 63 | 260 | 18.2 | 18.2 | 0.00 | 0.00 | 0.00 | 63 | 1017.9 |
| 20260501182504 | 63 | 260 | 18.2 | 18.2 | 0.00 | 0.00 | 0.00 | 63 | 1017.9 |
| 20260501182008 | 63 | 260 | 18.2 | 18.2 | 0.00 | 0.00 | 0.00 | 63 | 1017.9 |
| 20260501180504 | 63 | 260 | 18.2 | 18.2 | 0.00 | 0.00 | 0.00 | 63 | 1017.9 |
| 20260501180004 | 63 | 260 | 18.2 | 18.2 | 0.00 | 0.00 | 0.00 | 63 | 1017.9 |
| 20260501175007 | 73 | 210 | 7.8 | 7.8 | 0.00 | 0.00 | 0.00 | 43 | 1016.9 |
| 20260501174007 | 73 | 210 | 7.8 | 7.8 | 0.00 | 0.00 | 0.00 | 43 | 1016.9 |
| 20260501173504 | 73 | 210 | 7.8 | 7.8 | 0.00 | 0.00 | 0.00 | 43 | 1016.9 |
| 20260501173007 | 73 | 210 | 7.8 | 7.8 | 0.00 | 0.00 | 0.00 | 43 | 1016.9 |
| 20260501170503 | 73 | 210 | 7.8 | 8.7 | 0.00 | 0.00 | 0.00 | 43 | 1016.9 |
| 20260501165503 | 75 | 170 | 8.7 | 8.7 | 0.00 | 0.00 | 0.00 | 38 | 1016.9 |
| 20260501164007 | 75 | 170 | 8.7 | 8.7 | 0.00 | 0.00 | 0.00 | 38 | 1016.9 |
| 20260501162007 | 75 | 170 | 8.7 | 8.7 | 0.00 | 0.00 | 0.00 | 38 | 1016.9 |
| 20260501161504 | 75 | 170 | 8.7 | 8.7 | 0.00 | 0.00 | 0.00 | 38 | 1016.9 |
| 20260501155008 | 73 | 200 | 10.4 | 10.4 | 0.00 | 0.00 | 0.00 | 40 | 1017.9 |
| 20260501154008 | 73 | 200 | 10.4 | 10.4 | 0.00 | 0.00 | 0.00 | 40 | 1017.9 |
| 20260501153504 | 73 | 200 | 10.4 | 10.4 | 0.00 | 0.00 | 0.00 | 40 | 1017.9 |
| 20260501151007 | 73 | 200 | 10.4 | 10.4 | 0.00 | 0.00 | 0.00 | 40 | 1017.9 |
| 20260501145504 | 75 | 170 | 8.7 | 8.7 | 0.00 | 0.00 | 0.00 | 38 | 1017.9 |